Погода в Кызыл-Даге

Россия / Республика Тыва     51°02′26″N   90°06′28″E
темп.,
°C
ветер,
м/с
пор.,
м/с
влажн.,
%
обл.,
%
осадки,
мм/ч
давл.,
гПа
погр.,
м
14 апреля, ср
ср1401:00−3зсз33580 1.9 1027120
04:00−4зсз2251100 0.0 1029118
07:00−5зсз22495 0.0 1032146
10:00−2сз25285 0.0 10311714
13:00+1зюз36295 0.0 10281803
16:00+3зюз35315 0.0 10251456
19:00+2зюз454199 0.0 1024521
22:000з3550100 0.0 1025148
15 апреля, чт
чт1501:00−1з345672 0.0 102584
04:00−2з45577 0.0 102489
07:00−1з44542 0.0 102597
10:00+4з23391 0.0 1023731
13:00+7зюз23365 0.0 10201403
16:00+9з333475 0.0 10191423
19:00+7з33435 0.0 1020435
22:00+3з33545 0.0 102356
16 апреля, пт
пт1601:00+2з225321 0.0 102223
04:00+1зсз225415 0.0 102117
07:00+2зсз22525 0.0 102120
10:00+6вюв22394 0.0 1018581
13:00+10вюв23280 0.0 10151261
16:00+12зюз33190 0.0 10131669
19:00+10з44320 0.0 1014442
22:00+6з33430 0.0 101550
17 апреля, сб
сб1701:00+5зсз33420 0.0 101431
04:00+4зсз32424 0.0 101321
07:00+4з2240100 0.0 101225
10:00+8ююв1225100 0.0 1010555
13:00+11зюз2715100 0.0 10072228
16:00+11зюз4921100 0.0 10062370
19:00+10юз233048 0.0 1005555
22:00+6з344481 0.0 100674
18 апреля, вс
вс1801:00+4з336161 0.0 100865
04:00+2з22642 0.0 100931
07:00+2з22590 0.0 101038
10:00+7зюз310323 0.0 10072246
13:00+10зюз8132810 0.0 10052632
16:00+11з915255 0.0 10042702
19:00+9зюз514331 0.0 10042171
22:00+5юз33451 0.0 100760